• In Austria
  • List of Countries
  • For 7 days
  • Water Temperature
  • Satellite Maps
  • Weather Map
  • News
  • Weather Widgets
  • user-avatar
    Login

    Hourly Weather Yulara

    Today, 14 August, Tuesday

    Time Temperature Precipitation Wind Pressure Humidity
    00:00 +12°C° 0 mm 4 mps 725 mmHg 35%
    01:00 +11°C° 0 mm 4 mps 725 mmHg 37%
    02:00 +10°C° 0 mm 4 mps 724 mmHg 39%
    03:00 +10°C° 0 mm 4 mps 724 mmHg 41%
    04:00 +8°C° 0 mm 4 mps 724 mmHg 42%
    05:00 +8°C° 0 mm 4 mps 724 mmHg 44%
    06:00 +7°C° 0 mm 4 mps 724 mmHg 45%
    07:00 +10°C° 0 mm 4 mps 724 mmHg 41%
    08:00 +12°C° 0 mm 4 mps 724 mmHg 36%
    09:00 +14°C° 0 mm 5 mps 724 mmHg 30%
    10:00 +17°C° 0 mm 4 mps 724 mmHg 25%
    11:00 +19°C° 0 mm 4 mps 723 mmHg 21%
    12:00 +21°C° 0 mm 3 mps 723 mmHg 16%
    13:00 +22°C° 0 mm 3 mps 723 mmHg 15%
    14:00 +24°C° 0 mm 2 mps 722 mmHg 13%
    15:00 +25°C° 0 mm 2 mps 721 mmHg 11%
    16:00 +23°C° 0 mm 2 mps 721 mmHg 13%
    17:00 +20°C° 0 mm 2 mps 720 mmHg 15%
    18:00 +18°C° 0 mm 2 mps 720 mmHg 17%
    19:00 +18°C° 0 mm 2 mps 720 mmHg 18%
    20:00 +17°C° 0 mm 2 mps 720 mmHg 19%
    21:00 +16°C° 0 mm 2 mps 721 mmHg 20%
    22:00 +15°C° 0 mm 2 mps 721 mmHg 21%
    23:00 +15°C° 0 mm 2 mps 721 mmHg 21%

    Tomorrow, 15 August, Wednesday

    Time Temperature Precipitation Wind Pressure Humidity
    00:00 +14°C° 0 mm 2 mps 721 mmHg 22%
    01:00 +14°C° 0 mm 1 mps 720 mmHg 23%
    02:00 +13°C° 0 mm 1 mps 720 mmHg 24%
    03:00 +12°C° 0 mm 1 mps 720 mmHg 25%
    04:00 +12°C° 0 mm 1 mps 720 mmHg 26%
    05:00 +11°C° 0 mm 1 mps 720 mmHg 27%
    06:00 +10°C° 0 mm 1 mps 720 mmHg 29%
    07:00 +13°C° 0 mm 1 mps 720 mmHg 25%
    08:00 +16°C° 0 mm 1 mps 721 mmHg 21%
    09:00 +18°C° 0 mm 0 mps 721 mmHg 17%
    10:00 +20°C° 0 mm 0 mps 721 mmHg 15%
    11:00 +21°C° 0 mm 0 mps 721 mmHg 14%
    12:00 +25°C° 0 mm 1 mps 721 mmHg 12%
    13:00 +26°C° 0 mm 1 mps 720 mmHg 12%
    14:00 +26°C° 0 mm 1 mps 719 mmHg 11%
    15:00 +27°C° 0 mm 1 mps 719 mmHg 10%
    16:00 +25°C° 0 mm 1 mps 719 mmHg 12%
    17:00 +23°C° 0 mm 1 mps 718 mmHg 14%
    18:00 +20°C° 0 mm 1 mps 718 mmHg 17%
    19:00 +20°C° 0 mm 1 mps 718 mmHg 17%
    20:00 +19°C° 0 mm 1 mps 719 mmHg 18%
    21:00 +18°C° 0 mm 1 mps 719 mmHg 18%
    22:00 +18°C° 0 mm 1 mps 719 mmHg 18%
    23:00 +16°C° 0 mm 1 mps 719 mmHg 18%

    Day after tomorrow, 16 August, Thursday

    Time Temperature Precipitation Wind Pressure Humidity
    00:00 +16°C° 0 mm 2 mps 719 mmHg 18%
    01:00 +16°C° 0 mm 2 mps 719 mmHg 19%
    02:00 +14°C° 0 mm 3 mps 719 mmHg 19%
    03:00 +14°C° 0 mm 4 mps 718 mmHg 19%
    04:00 +14°C° 0 mm 4 mps 718 mmHg 23%
    05:00 +13°C° 0 mm 4 mps 718 mmHg 27%
    06:00 +12°C° 0 mm 4 mps 718 mmHg 31%
    07:00 +13°C° 0 mm 5 mps 719 mmHg 33%
    08:00 +15°C° 0 mm 5 mps 720 mmHg 34%
    09:00 +16°C° 0 mm 5 mps 720 mmHg 36%
    10:00 +20°C° 0 mm 5 mps 720 mmHg 30%
    11:00 +22°C° 0 mm 4 mps 720 mmHg 25%
    12:00 +25°C° 0 mm 3 mps 719 mmHg 19%
    13:00 +25°C° 0 mm 2 mps 719 mmHg 17%
    14:00 +26°C° 0 mm 1 mps 718 mmHg 14%
    15:00 +27°C° 0 mm 1 mps 717 mmHg 12%
    16:00 +25°C° 0 mm 1 mps 717 mmHg 15%
    17:00 +23°C° 0 mm 1 mps 717 mmHg 17%
    18:00 +19°C° 0 mm 0 mps 717 mmHg 20%
    19:00 +20°C° 0 mm 1 mps 717 mmHg 20%
    20:00 +20°C° 0 mm 1 mps 717 mmHg 20%
    21:00 +18°C° 0 mm 2 mps 718 mmHg 20%
    22:00 +18°C° 0 mm 2 mps 718 mmHg 21%
    23:00 +18°C° 0 mm 3 mps 718 mmHg 23%

    17 August, Friday

    Time Temperature Precipitation Wind Pressure Humidity
    00:00 +17°C° 0 mm 3 mps 718 mmHg 24%
    01:00 +16°C° 0 mm 3 mps 717 mmHg 27%
    02:00 +15°C° 0 mm 4 mps 717 mmHg 29%
    03:00 +14°C° 0 mm 4 mps 717 mmHg 31%
    04:00 +13°C° 0 mm 3 mps 717 mmHg 32%
    05:00 +12°C° 0 mm 3 mps 717 mmHg 34%
    06:00 +12°C° 0 mm 3 mps 717 mmHg 36%
    07:00 +14°C° 0 mm 3 mps 717 mmHg 31%
    08:00 +17°C° 0 mm 3 mps 718 mmHg 26%
    09:00 +19°C° 0 mm 3 mps 719 mmHg 21%
    10:00 +21°C° 0 mm 3 mps 718 mmHg 17%
    11:00 +24°C° 0 mm 2 mps 718 mmHg 14%
    12:00 +27°C° 0 mm 2 mps 718 mmHg 11%
    13:00 +27°C° 0 mm 3 mps 717 mmHg 10%
    14:00 +28°C° 0 mm 3 mps 717 mmHg 10%
    15:00 +29°C° 0 mm 3 mps 716 mmHg 10%
    16:00 +27°C° 0 mm 3 mps 716 mmHg 12%
    17:00 +25°C° 0 mm 2 mps 716 mmHg 14%
    18:00 +23°C° 0 mm 2 mps 716 mmHg 16%
    19:00 +21°C° 0 mm 2 mps 717 mmHg 17%
    20:00 +20°C° 0 mm 2 mps 717 mmHg 18%
    21:00 +19°C° 0 mm 2 mps 718 mmHg 19%
    22:00 +19°C° 0 mm 3 mps 718 mmHg 21%
    23:00 +19°C° 0 mm 4 mps 718 mmHg 22%

    18 August, Saturday

    Time Temperature Precipitation Wind Pressure Humidity
    00:00 +17°C° 0 mm 5 mps 718 mmHg 24%
    01:00 +17°C° 0 mm 5 mps 718 mmHg 31%
    02:00 +16°C° 0 mm 6 mps 718 mmHg 38%
    03:00 +15°C° 0 mm 6 mps 718 mmHg 44%
    04:00 +14°C° 0 mm 5 mps 719 mmHg 50%
    05:00 +14°C° 0 mm 5 mps 719 mmHg 55%
    06:00 +13°C° 0 mm 4 mps 720 mmHg 60%
    07:00 +14°C° 0 mm 5 mps 720 mmHg 54%
    08:00 +16°C° 0 mm 6 mps 721 mmHg 48%
    09:00 +17°C° 0 mm 7 mps 722 mmHg 42%
    10:00 +20°C° 0 mm 7 mps 722 mmHg 38%
    11:00 +22°C° 0 mm 6 mps 721 mmHg 33%
    12:00 +23°C° 0 mm 6 mps 721 mmHg 28%
    13:00 +25°C° 0 mm 5 mps 721 mmHg 26%
    14:00 +26°C° 0 mm 5 mps 720 mmHg 25%
    15:00 +26°C° 0 mm 5 mps 720 mmHg 23%
    16:00 +25°C° 0 mm 4 mps 720 mmHg 25%
    17:00 +23°C° 0 mm 4 mps 721 mmHg 28%
    18:00 +22°C° 0 mm 4 mps 721 mmHg 30%
    19:00 +21°C° 0 mm 5 mps 722 mmHg 34%
    20:00 +19°C° 0 mm 6 mps 722 mmHg 37%
    21:00 +17°C° 0 mm 6 mps 723 mmHg 41%
    22:00 +16°C° 0 mm 6 mps 723 mmHg 43%
    23:00 +15°C° 0 mm 6 mps 723 mmHg 44%

    19 August, Sunday

    Time Temperature Precipitation Wind Pressure Humidity
    00:00 +14°C° 0 mm 7 mps 723 mmHg 46%
    01:00 +14°C° 0 mm 6 mps 723 mmHg 46%
    02:00 +13°C° 0 mm 6 mps 723 mmHg 47%
    03:00 +11°C° 0 mm 6 mps 724 mmHg 47%
    04:00 +11°C° 0 mm 6 mps 724 mmHg 47%
    05:00 +10°C° 0 mm 6 mps 725 mmHg 48%
    06:00 +9°C° 0 mm 6 mps 725 mmHg 48%
    07:00 +10°C° 0 mm 7 mps 726 mmHg 48%
    08:00 +11°C° 0 mm 8 mps 727 mmHg 48%
    09:00 +12°C° 0 mm 8 mps 727 mmHg 48%
    10:00 +13°C° 0 mm 8 mps 727 mmHg 44%
    11:00 +15°C° 0 mm 8 mps 727 mmHg 39%
    12:00 +17°C° 0 mm 7 mps 726 mmHg 35%
    13:00 +18°C° 0 mm 7 mps 726 mmHg 32%
    14:00 +18°C° 0 mm 7 mps 725 mmHg 30%
    15:00 +20°C° 0 mm 7 mps 725 mmHg 27%
    16:00 +17°C° 0 mm 7 mps 725 mmHg 28%
    17:00 +16°C° 0 mm 7 mps 725 mmHg 29%
    18:00 +15°C° 0 mm 7 mps 726 mmHg 30%
    19:00 +14°C° 0 mm 7 mps 726 mmHg 33%
    20:00 +12°C° 0 mm 7 mps 727 mmHg 36%
    21:00 +10°C° 0 mm 7 mps 727 mmHg 40%
    22:00 +10°C° 0 mm 7 mps 727 mmHg 42%
    23:00 +9°C° 0 mm 7 mps 727 mmHg 44%
    Show more